Villas, NJ

4:25 PM EDT on July 23, 2016 (GMT -0400)
Cape May County

Weather History for KWWD - September, 2013

Change the Weather History Date:

Monday, September 23, 2013

  Actual Average Record
Temperature  
Mean Temperature 57 °F -  
Max Temperature 64 °F 71 °F 89 °F (2005)
Min Temperature 50 °F 57 °F 48 °F (2014)
Degree Days  
Heating Degree Days 8    
Growing Degree Days 7 (Base 50)    
Moisture  
Dew Point 42 °F    
Average Humidity 58    
Maximum Humidity 72    
Minimum Humidity 45    
Precipitation  
Precipitation 0.00 in - - ()
Sea Level Pressure  
Sea Level Pressure 30.02 in    
Wind  
Wind Speed 8 mph (NNW)    
Max Wind Speed 14 mph    
Max Gust Speed 23 mph    
Visibility 10 miles    
Events      
Averages and records for this station are not official NWS values.
T = Trace of Precipitation, MM = Missing Value Source: NWS Daily Summary

Daily Weather History Graph

Daily Weather History Graph

Search for Another Location

Airport or City:

Trip Planner

Search our weather history database for the weather conditions in past years. The results will help you decide how hot, cold, wet, or windy it might be!

Date:

Astronomy

Sep. 23, 2013 Rise Set
Actual Time 6:48 AM EDT 6:54 PM EDT
Civil Twilight 6:21 AM EDT 7:21 PM EDT
Nautical Twilight 5:50 AM EDT 7:52 PM EDT
Astronomical Twilight 5:18 AM EDT 8:23 PM EDT
Moon 9:27 PM EDT 11:02 AM EDT
Length of Visible Light 12h 59m
Length of Day
12h 06m
Waning Gibbous, 81% of the Moon is Illuminated
Sep 23
Waning Gibbous
Sep 26
Last Quarter
Oct 4
New
Oct 11
First Quarter
Oct 18
Full

Hourly Weather History & Observations

Time (EDT) Temp. Dew Point Humidity Pressure Visibility Wind Dir Wind Speed Gust Speed Precip Events Conditions
12:15 AM 53.6 °F 42.8 °F 67% 29.93 in 10.0 mi North 8.1 mph - N/A   Clear
12:35 AM 53.6 °F 42.8 °F 67% 29.93 in 10.0 mi North 8.1 mph - N/A   Clear
12:55 AM 53.6 °F 42.8 °F 67% 29.94 in 10.0 mi North 8.1 mph - N/A   Clear
1:15 AM 53.6 °F 42.8 °F 67% 29.94 in 10.0 mi North 8.1 mph - N/A   Clear
1:35 AM 53.6 °F 42.8 °F 67% 29.95 in 10.0 mi NNE 10.4 mph - N/A   Clear
1:55 AM 53.6 °F 42.8 °F 67% 29.96 in 10.0 mi North 8.1 mph - N/A   Clear
2:15 AM 53.6 °F 42.8 °F 67% 29.96 in 10.0 mi North 11.5 mph - N/A   Clear
2:35 AM 51.8 °F 41.0 °F 67% 29.96 in 10.0 mi North 10.4 mph - N/A   Clear
2:55 AM 51.8 °F 41.0 °F 67% 29.96 in 10.0 mi North 8.1 mph - N/A   Clear
3:15 AM 51.8 °F 41.0 °F 67% 29.97 in 10.0 mi North 5.8 mph - N/A   Clear
3:35 AM 50.0 °F 41.0 °F 71% 29.96 in 10.0 mi NNE 5.8 mph - N/A   Clear
3:55 AM 50.0 °F 41.0 °F 71% 29.97 in 10.0 mi North 8.1 mph - N/A   Clear
4:15 AM 50.0 °F 41.0 °F 71% 29.97 in 10.0 mi North 6.9 mph - N/A   Clear
4:35 AM 50.0 °F 41.0 °F 71% 29.97 in 10.0 mi North 6.9 mph - N/A   Clear
4:55 AM 51.8 °F 41.0 °F 67% 29.98 in 10.0 mi North 8.1 mph - N/A   Clear
5:15 AM 51.8 °F 41.0 °F 67% 29.98 in 10.0 mi North 10.4 mph - N/A   Clear
5:35 AM 51.8 °F 41.0 °F 67% 29.99 in 10.0 mi North 6.9 mph - N/A   Clear
5:55 AM 51.8 °F 39.2 °F 62% 29.99 in 10.0 mi North 9.2 mph - N/A   Clear
6:15 AM 51.8 °F 39.2 °F 62% 30.00 in 10.0 mi North 8.1 mph - N/A   Clear
6:35 AM 51.8 °F 39.2 °F 62% 30.01 in 10.0 mi North 8.1 mph - N/A   Clear
6:55 AM 51.8 °F 39.2 °F 62% 30.02 in 10.0 mi North 10.4 mph - N/A   Clear
7:15 AM 51.8 °F 39.2 °F 62% 30.03 in 10.0 mi North 10.4 mph - N/A   Clear
7:35 AM 53.6 °F 39.2 °F 58% 30.03 in 10.0 mi North 9.2 mph - N/A   Clear
7:55 AM 53.6 °F 39.2 °F 58% 30.03 in 10.0 mi North 11.5 mph 18.4 mph N/A   Clear
8:15 AM 53.6 °F 39.2 °F 58% 30.04 in 10.0 mi North 11.5 mph 19.6 mph N/A   Clear
8:35 AM 55.4 °F 39.2 °F 54% 30.04 in 10.0 mi North 10.4 mph 16.1 mph N/A   Clear
8:55 AM 55.4 °F 39.2 °F 54% 30.04 in 10.0 mi North 11.5 mph 18.4 mph N/A   Clear
9:15 AM 55.4 °F 41.0 °F 58% 30.05 in 10.0 mi North 12.7 mph 21.9 mph N/A   Clear
9:35 AM 55.4 °F 39.2 °F 54% 30.05 in 10.0 mi North 12.7 mph 20.7 mph N/A   Clear
9:55 AM 57.2 °F 39.2 °F 51% 30.05 in 10.0 mi North 11.5 mph 19.6 mph N/A   Clear
10:15 AM 57.2 °F 39.2 °F 51% 30.05 in 10.0 mi North 13.8 mph 19.6 mph N/A   Clear
10:35 AM 57.2 °F 39.2 °F 51% 30.06 in 10.0 mi North 8.1 mph 23.0 mph N/A   Clear
10:55 AM 57.2 °F 39.2 °F 51% 30.05 in 10.0 mi North 12.7 mph 18.4 mph N/A   Clear
11:15 AM 60.8 °F 41.0 °F 48% 30.05 in 10.0 mi North 13.8 mph 18.4 mph N/A   Clear
11:35 AM 60.8 °F 39.2 °F 45% 30.05 in 10.0 mi North 9.2 mph - N/A   Clear
11:55 AM 60.8 °F 41.0 °F 48% 30.05 in 10.0 mi NNW 6.9 mph 16.1 mph N/A   Clear
12:15 PM 60.8 °F 39.2 °F 45% 30.05 in 10.0 mi NNW 6.9 mph - N/A   Clear
12:35 PM 60.8 °F 41.0 °F 48% 30.05 in 10.0 mi NNW 5.8 mph 18.4 mph N/A   Clear
12:55 PM 60.8 °F 41.0 °F 48% 30.04 in 10.0 mi NNW 5.8 mph - N/A   Clear
1:15 PM 62.6 °F 42.8 °F 48% 30.04 in 10.0 mi NW 8.1 mph - N/A   Clear
1:35 PM 62.6 °F 42.8 °F 48% 30.03 in 10.0 mi NW 9.2 mph - N/A   Clear
1:55 PM 62.6 °F 42.8 °F 48% 30.03 in 10.0 mi NW 9.2 mph 18.4 mph N/A   Clear
2:15 PM 62.6 °F 44.6 °F 52% 30.02 in 10.0 mi NW 8.1 mph 16.1 mph N/A   Clear
2:35 PM 62.6 °F 44.6 °F 52% 30.02 in 10.0 mi WNW 10.4 mph - N/A   Clear
2:55 PM 62.6 °F 44.6 °F 52% 30.02 in 10.0 mi WNW 10.4 mph 17.3 mph N/A   Clear
3:15 PM 62.6 °F 44.6 °F 52% 30.01 in 10.0 mi WNW 12.7 mph 18.4 mph N/A   Clear
3:35 PM 64.4 °F 44.6 °F 49% 30.01 in 10.0 mi WNW 10.4 mph 17.3 mph N/A   Clear
3:55 PM 64.4 °F 44.6 °F 49% 30.01 in 10.0 mi WNW 12.7 mph 19.6 mph N/A   Clear
4:15 PM 64.4 °F 44.6 °F 49% 30.01 in 10.0 mi WNW 10.4 mph - N/A   Clear
4:35 PM 64.4 °F 44.6 °F 49% 30.01 in 10.0 mi WNW 11.5 mph 17.3 mph N/A   Clear
4:55 PM 64.4 °F 44.6 °F 49% 30.02 in 10.0 mi WNW 5.8 mph - N/A   Clear
5:15 PM 64.4 °F 44.6 °F 49% 30.02 in 10.0 mi WNW 9.2 mph - N/A   Clear
5:35 PM 62.6 °F 44.6 °F 52% 30.02 in 10.0 mi WNW 8.1 mph - N/A   Clear
5:55 PM 62.6 °F 44.6 °F 52% 30.02 in 10.0 mi WNW 6.9 mph - N/A   Partly Cloudy
6:15 PM 62.6 °F 44.6 °F 52% 30.02 in 10.0 mi NW 6.9 mph - N/A   Partly Cloudy
6:35 PM 62.6 °F 44.6 °F 52% 30.02 in 10.0 mi NNW 4.6 mph - N/A   Clear
6:55 PM 60.8 °F 44.6 °F 55% 30.03 in 10.0 mi NW 4.6 mph - N/A   Clear
7:15 PM 59.0 °F 44.6 °F 59% 30.03 in 10.0 mi NW 3.5 mph - N/A   Clear
7:35 PM 59.0 °F 42.8 °F 55% 30.03 in 10.0 mi NNW 4.6 mph - N/A   Clear
7:55 PM 59.0 °F 44.6 °F 59% - 10.0 mi NW 3.5 mph - N/A   Clear
8:15 PM 60.8 °F 44.6 °F 55% 30.03 in 10.0 mi NW 3.5 mph - N/A   Clear
8:35 PM 59.0 °F 44.6 °F 59% 30.04 in 10.0 mi NNW 3.5 mph - N/A   Clear
8:55 PM 59.0 °F 44.6 °F 59% 30.04 in 10.0 mi NNW 4.6 mph - N/A   Clear
9:15 PM 59.0 °F 44.6 °F 59% 30.04 in 10.0 mi NNW 4.6 mph - N/A   Clear
9:35 PM 59.0 °F 44.6 °F 59% 30.04 in 10.0 mi NNW 5.8 mph - N/A   Clear
9:55 PM 57.2 °F 44.6 °F 63% 30.04 in 10.0 mi North 3.5 mph - N/A   Clear
10:15 PM 55.4 °F 44.6 °F 67% 30.05 in 10.0 mi Calm Calm - N/A   Clear
10:35 PM 53.6 °F 44.6 °F 72% 30.06 in 10.0 mi Calm Calm - N/A   Clear
10:55 PM 53.6 °F 44.6 °F 72% 30.06 in 10.0 mi Calm Calm - N/A   Clear
11:15 PM 53.6 °F 44.6 °F 72% 30.06 in 10.0 mi Calm Calm - N/A   Clear
11:35 PM 53.6 °F 42.8 °F 67% 30.07 in 10.0 mi North 4.6 mph - N/A   Clear
11:55 PM 53.6 °F 42.8 °F 67% 30.07 in 10.0 mi North 4.6 mph - N/A   Clear